Regional Weather Roundup
Issued by NWS Upton, NY

Current Version | Previous Version | Text Only | Print | Product List | Glossary On
Versions: 1 2 3 4 5 6 7 8 9 10 11 12 13 14 15 16 17 18 19 20 21 22 23 24 25 26 27 28 29 30 31 32 33 34 35 36 37 38 39 40 41 42 43 44 45 46 47 48 49 50
000
ASUS41 KOKX 010504
RWROKX

REGIONAL WEATHER ROUNDUP
NATIONAL WEATHER SERVICE NEW YORK NY
100 AM EDT SAT AUG 01 2015

NOTE: "FAIR" INDICATES FEW OR NO CLOUDS BELOW 12,000 FEET WITH NO
SIGNIFICANT WEATHER AND/OR OBSTRUCTIONS TO VISIBILITY.

NYZ071-072-176-178-NJZ106-104-010600-
NEW YORK CITY METRO AREA


CITY           SKY/WX    TMP DP  RH WIND       PRES   REMARKS
CENTRAL PARK   CLEAR     80  57  45 VRB3      29.86S
LAGUARDIA APRT CLEAR     82  57  42 S6        29.82F
KENNEDY INTL   CLEAR     77  65  66 SW7       29.84F
NEWARK/LIBERTY CLEAR     78  59  51 SW7       29.83S
BRNX BOT. GARD   N/A     81  57  44 SW1       29.82F
TETERBORO      CLEAR     75  58  55 CALM      29.81F
$$

NYZ177-179-078>081-010600-
LONG ISLAND NEW YORK

CITY           SKY/WX    TMP DP  RH WIND       PRES   REMARKS
FARMINGDALE    CLEAR     76  65  68 SW3       29.83F
ISLIP          CLEAR     74  69  85 SW5       29.82S
SHIRLEY        CLEAR     69  67  93 CALM      29.84S
WESTHAMPTON    PTCLDY    63  61  93 CALM      29.85F
MONTAUK POINT    N/A     74  66  76 CALM      29.84F
$$

NYZ052-065-067-010600-
HUDSON VALLEY

CITY           SKY/WX    TMP DP  RH WIND       PRES   REMARKS
WHITE PLAINS   CLEAR     69  60  73 CALM      29.83F
NEWBURGH       CLEAR     72  59  64 CALM      29.84
MONTGOMERY     CLEAR     66  61  84 CALM      29.82F
POUGHKEEPSIE   CLEAR     66  60  81 CALM      29.80F
ALBANY         PTCLDY    70  58  65 CALM      29.78F
$$

NJZ001-105-106-008-010-013-015-019>022-104-010600-
NEW JERSEY

CITY           SKY/WX    TMP DP  RH WIND       PRES   REMARKS
NEWARK/LIBERTY CLEAR     78  59  51 SW7       29.83S
TETERBORO      CLEAR     75  58  55 CALM      29.81F
CALDWELL       CLEAR     72  59  63 CALM      29.84S
MORRISTOWN     CLEAR     66  61  82 CALM      29.84F
SOMERVILLE     CLEAR     66  62  87 CALM      29.82F
SUSSEX         CLEAR     64  61  90 CALM      29.84F
ANDOVER          N/A     65  63  93 CALM      29.85F
TRENTON        CLEAR     71  60  68 SW5       29.85S
MILLVILLE      CLEAR     67  64  90 SW3       29.88S
ATLANTIC CITY  CLEAR     74  65  73 SW5       29.87F
WRIGHTSTOWN    CLEAR     70  63  78 CALM      29.83F
TOMS RIVER       N/A     64  61  88 CALM      29.86F
BELMAR         CLEAR     73  59  60 SW7       29.85F
$$

PAZ047>061-062-071-010600-
EASTERN PENNSYLVANIA

CITY           SKY/WX    TMP DP  RH WIND       PRES   REMARKS
PHILADELPHIA   CLEAR     77  65  66 SW8       29.86F
ALLENTOWN      CLEAR     71  61  70 W3        29.85S
SCRANTON       PTCLDY    72  59  63 S3        29.85F
$$

CTZ002-004>006-009-010-012-RIZ004-006-007-MAZ004-011-015-010600-
SOUTHERN NEW ENGLAND
 IN CT

CITY           SKY/WX    TMP DP  RH WIND       PRES   REMARKS
BRADLEY INTL   CLEAR     69  61  75 S7        29.80F
HARTFORD       MOCLDY    69  62  78 CALM      29.80F
DANBURY        CLEAR     63  58  83 SW5       29.84F
WTRBRY/OXFORD  CLEAR     64  55  72 CALM      29.86S
BRIDGEPORT     CLEAR     76  67  73 SW5       29.82F
MERIDEN        PTCLDY    64  59  83 CALM      29.82F
NEW HAVEN      CLEAR     68  63  84 CALM      29.82F
CHESTER        FAIR      66  61  82 CALM      29.85S
GROTON         CLEAR     66  63  90 CALM      29.82S
WILLIMANTIC    CLEAR     64  61  90 NE3       29.83F

 IN RI

CITY           SKY/WX    TMP DP  RH WIND       PRES   REMARKS
PROVIDENCE     CLEAR     68  62  81 W6        29.82F
BLOCK ISLAND     N/A     70  66  88 W8        29.83F
WESTERLY       CLEAR     66  63  90 CALM      29.83S

 IN MA

CITY           SKY/WX    TMP DP  RH WIND       PRES   REMARKS
BOSTON         CLEAR     73  56  54 SW3       29.80S
WORCESTER      CLEAR     65  53  65 SW6       29.84F
WESTFIELD      MOCLDY    62  59  90 S6        29.81F
PROVINCETOWN   CLEAR     66  57  72 SW6       29.81S
NANTUCKET        N/A     71  68  90 W8        29.82F
$$

ANZ330-335-338-340-345-350-353-355-010600-
COASTAL MARINE OBSERVATIONS


STATION/POSITION TIME  SKY/WX   TEMP    WIND        PRES    VSBY  WAVE
                                AIR SEA DIR/SP/G                  HT/PER
                 (UTC)          (F)     (DEG/KT/KT) (MB)    (MI)  (FT/S)
NY HARB ENTRANCE 0350            78 76  230/  6/  6 1010.2          4/ 8
4S FIRE IS       NOT AVBL
20S FIRE ISLAND  0350            77 76  240/ 10/ 12 1010.2          3/ 8
GREAT SOUTH BAY  0400            78 81  250/ 10/ 12   N/A
23SW MTP         0450            75 73  240/ 10/ 12 1009.8          3/ 7
HUDSON CANYON    NOT AVBL
KINGS POINT      0400            80 70  180/  6/  7 1009.5
EXECUTION ROCKS  0400            75     350/  2/  4   N/A
CENTRAL LI SOUND NOT AVBL
EASTERN LI SOUND 0400            70 69  280/  4/  4   N/A
ROBBINS REEF     0400            81     240/  8/  9 1009.2
$$


>>>>>>>>>>>>>>>>>>>>>>>>>>>> KEY <<<<<<<<<<<<<<<<<<<<<<<<<<<
>                                                          <
>     SKY/WX - SKY CONDITION/PRESENT WEATHER               <
>     TMP    - TEMPERATURE IN FAHRENHEIT                   <
>     DP     - DEWPOINT IN FAHRENHEIT                      <
>     RH     - RELATIVE HUMIDITY IN PERCENT                <
>     WIND   - DIRECTION AND SPEED IN MPH                  <
>     PRES   - MEAN SEA LEVEL PRESSURE IN INCHES OF HG     <
>     WCI    - WIND CHILL INDEX                            <
>     VSB    - VISIBILITY IN MILES                         <
>     HX     - HEAT INDEX                                  <
>     TC     - TEMPERATURE IN CELSIUS                      <
>     VRB    - VARIABLE WIND DIRECTION                     <
>                                                          <
>>>>>>>>>>>>>>>>>>>>>>>>>>>> KEY <<<<<<<<<<<<<<<<<<<<<<<<<<<




USA.gov is the U.S. government's official web portal to all federal, state and local government web resources and services.